TimeMST,TemperatureF,Dew PointF,Humidity,Sea Level PressureIn,VisibilityMPH,Wind Direction,Wind SpeedMPH,Gust SpeedMPH,PrecipitationIn,Events,Conditions,WindDirDegrees,DateUTC
12:15 AM,27.1,19.8,74,30.30,10.0,Calm,Calm,-,N/A,,Clear,0,2012-11-17 07:15:00
12:35 AM,23.4,18.9,83,30.30,10.0,NNW,3.5,-,N/A,,Clear,340,2012-11-17 07:35:00
12:55 AM,25.7,19.4,77,30.29,10.0,NNW,3.5,-,N/A,,Clear,330,2012-11-17 07:55:00
1:15 AM,26.1,19.2,75,30.29,10.0,NW,3.5,-,N/A,,Clear,320,2012-11-17 08:15:00
1:35 AM,26.4,19.6,75,30.29,10.0,Calm,Calm,-,N/A,,Clear,0,2012-11-17 08:35:00
1:55 AM,23.9,18.5,80,30.30,10.0,NW,4.6,-,N/A,,Clear,320,2012-11-17 08:55:00
2:15 AM,25.5,19.2,77,30.30,10.0,NW,4.6,-,N/A,,Clear,310,2012-11-17 09:15:00
2:35 AM,26.6,20.1,77,30.29,10.0,NW,8.1,-,N/A,,Clear,310,2012-11-17 09:35:00
2:55 AM,26.4,19.9,77,30.30,10.0,NW,5.8,-,N/A,,Clear,320,2012-11-17 09:55:00
3:15 AM,25.7,19.6,78,30.29,10.0,NW,5.8,-,N/A,,Clear,310,2012-11-17 10:15:00
3:35 AM,23.9,19.0,82,30.29,10.0,NNW,4.6,-,N/A,,Clear,340,2012-11-17 10:35:00
3:55 AM,23.0,18.3,82,30.29,10.0,North,5.8,-,N/A,,Clear,350,2012-11-17 10:55:00
4:15 AM,22.6,18.1,83,30.29,10.0,NW,5.8,-,N/A,,Clear,320,2012-11-17 11:15:00
4:35 AM,23.4,18.7,82,30.29,10.0,NW,5.8,-,N/A,,Clear,310,2012-11-17 11:35:00
4:55 AM,23.0,18.0,81,30.30,10.0,NNW,4.6,-,N/A,,Clear,340,2012-11-17 11:55:00
5:15 AM,23.5,18.5,81,30.30,10.0,NW,6.9,-,N/A,,Clear,320,2012-11-17 12:15:00
5:35 AM,23.5,18.5,81,30.30,10.0,NW,5.8,-,N/A,,Clear,320,2012-11-17 12:35:00
5:55 AM,23.2,18.7,83,30.30,10.0,NW,6.9,-,N/A,,Clear,320,2012-11-17 12:55:00
6:15 AM,23.2,18.3,82,30.30,10.0,NNW,6.9,-,N/A,,Clear,330,2012-11-17 13:15:00
6:35 AM,22.6,18.0,82,30.31,10.0,NW,5.8,-,N/A,,Clear,310,2012-11-17 13:35:00
6:55 AM,22.6,18.1,83,30.31,10.0,NW,6.9,-,N/A,,Clear,320,2012-11-17 13:55:00
7:15 AM,23.9,18.9,81,30.31,10.0,NW,6.9,-,N/A,,Clear,320,2012-11-17 14:15:00
7:35 AM,25.7,19.4,77,30.32,10.0,NW,6.9,-,N/A,,Clear,320,2012-11-17 14:35:00
7:55 AM,26.1,19.4,76,30.33,10.0,NNW,5.8,-,N/A,,Clear,330,2012-11-17 14:55:00
8:15 AM,27.5,20.5,75,30.33,10.0,NNW,4.6,-,N/A,,Clear,330,2012-11-17 15:15:00
8:35 AM,30.2,21.4,70,30.33,10.0,NW,5.8,-,N/A,,Clear,320,2012-11-17 15:35:00
9:15 AM,34.9,23.4,63,30.33,10.0,NW,4.6,-,N/A,,Clear,310,2012-11-17 16:15:00
9:35 AM,36.9,23.7,59,30.33,10.0,NW,3.5,-,N/A,,Clear,310,2012-11-17 16:35:00
10:55 AM,45.5,25.3,45,30.32,10.0,Calm,Calm,-,N/A,,Clear,0,2012-11-17 17:55:00
11:15 AM,47.5,26.1,43,30.30,10.0,Calm,Calm,-,N/A,,Clear,0,2012-11-17 18:15:00
11:35 AM,48.7,26.1,41,30.30,10.0,Calm,Calm,-,N/A,,Clear,0,2012-11-17 18:35:00
11:55 AM,51.1,26.2,38,30.28,10.0,Calm,Calm,-,N/A,,Clear,0,2012-11-17 18:55:00
12:15 PM,53.4,25.9,34,30.26,10.0,SE,5.8,-,N/A,,Clear,130,2012-11-17 19:15:00
12:35 PM,54.5,25.5,33,30.26,10.0,ESE,6.9,-,N/A,,Clear,120,2012-11-17 19:35:00
12:55 PM,55.8,25.9,32,30.24,10.0,SE,9.2,-,N/A,,Clear,130,2012-11-17 19:55:00
1:15 PM,55.9,26.6,32,30.24,10.0,SE,10.4,-,N/A,,Clear,130,2012-11-17 20:15:00
1:35 PM,57.4,27.7,32,30.23,10.0,SSE,8.1,-,N/A,,Clear,150,2012-11-17 20:35:00
1:55 PM,58.3,28.0,32,30.22,10.0,SE,8.1,-,N/A,,Clear,140,2012-11-17 20:55:00
2:15 PM,59.4,28.2,31,30.21,10.0,SSE,6.9,-,N/A,,Clear,160,2012-11-17 21:15:00
2:35 PM,59.4,27.1,29,30.21,10.0,SSE,6.9,-,N/A,,Clear,160,2012-11-17 21:35:00
2:55 PM,59.2,27.0,29,30.21,10.0,South,8.1,-,N/A,,Clear,170,2012-11-17 21:55:00
3:15 PM,59.0,26.6,29,30.20,10.0,SE,8.1,-,N/A,,Clear,140,2012-11-17 22:15:00
3:35 PM,57.7,28.2,32,30.20,10.0,ESE,10.4,-,N/A,,Mostly Cloudy,120,2012-11-17 22:35:00
3:55 PM,56.8,28.4,34,30.20,10.0,SE,9.2,-,N/A,,Overcast,130,2012-11-17 22:55:00
4:15 PM,56.1,28.4,35,30.20,10.0,SSE,6.9,-,N/A,,Overcast,150,2012-11-17 23:15:00
4:35 PM,54.0,29.1,39,30.20,10.0,South,3.5,-,N/A,,Scattered Clouds,180,2012-11-17 23:35:00
5:15 PM,52.0,28.4,40,30.20,10.0,South,5.8,-,N/A,,Scattered Clouds,190,2012-11-18 00:15:00
5:35 PM,50.7,28.4,42,30.21,10.0,SSE,5.8,-,N/A,,Scattered Clouds,160,2012-11-18 00:35:00
5:55 PM,49.6,28.0,43,30.21,10.0,SSE,5.8,-,N/A,,Scattered Clouds,160,2012-11-18 00:55:00
6:15 PM,48.2,27.1,44,30.21,10.0,SSE,5.8,-,N/A,,Clear,150,2012-11-18 01:15:00
6:35 PM,46.9,26.2,44,30.21,10.0,South,4.6,-,N/A,,Clear,180,2012-11-18 01:35:00
6:55 PM,45.1,26.4,48,30.21,10.0,SSW,4.6,-,N/A,,Clear,210,2012-11-18 01:55:00
7:15 PM,44.8,25.9,48,30.21,10.0,Calm,Calm,-,N/A,,Clear,0,2012-11-18 02:15:00
7:35 PM,41.2,25.7,54,30.21,10.0,South,4.6,-,N/A,,Clear,170,2012-11-18 02:35:00
7:55 PM,41.0,27.7,59,30.21,10.0,South,3.5,-,N/A,,Clear,180,2012-11-18 02:55:00
8:15 PM,41.5,30.2,64,30.23,10.0,SW,8.1,-,N/A,,Clear,220,2012-11-18 03:15:00
8:35 PM,41.9,30.7,65,30.23,10.0,Calm,Calm,-,N/A,,Scattered Clouds,0,2012-11-18 03:35:00
8:55 PM,39.7,29.5,67,30.23,10.0,Calm,Calm,-,N/A,,Mostly Cloudy,0,2012-11-18 03:55:00
9:15 PM,38.5,29.7,71,30.23,10.0,Calm,Calm,-,N/A,,Overcast,0,2012-11-18 04:15:00
9:35 PM,37.0,28.2,70,30.23,10.0,SSW,3.5,-,N/A,,Overcast,200,2012-11-18 04:35:00
9:55 PM,36.0,27.9,72,30.23,10.0,Calm,Calm,-,N/A,,Overcast,0,2012-11-18 04:55:00
10:15 PM,34.5,27.9,77,30.23,10.0,Calm,Calm,-,N/A,,Mostly Cloudy,0,2012-11-18 05:15:00
10:35 PM,31.8,26.2,80,30.23,10.0,NW,4.6,-,N/A,,Clear,320,2012-11-18 05:35:00
10:55 PM,32.9,26.1,76,30.23,10.0,Calm,Calm,-,N/A,,Clear,0,2012-11-18 05:55:00
11:15 PM,30.2,24.4,79,30.23,10.0,NNW,4.6,-,N/A,,Clear,330,2012-11-18 06:15:00
11:35 PM,32.0,25.9,78,30.24,10.0,Calm,Calm,-,N/A,,Scattered Clouds,0,2012-11-18 06:35:00
11:55 PM,29.8,24.8,81,30.23,10.0,WNW,3.5,-,N/A,,Scattered Clouds,300,2012-11-18 06:55:00